STARLINK-36778, 100627

Orbit data source: Space-Track

STARLINK-36778, 100627 is a payload satellite owned by SpaceX/Seattle (US) in LEO that was launched on Sun, 06 Sep 2026 UTC launched from the Air Force Western Test Range (AFWTR). Payload-class satellites include a variety of spacecraft equipped with specific instruments for various scientific and technological missions. These include communications satellites like Starlink; space stations such as the ISS; scientific satellites like the Hubble; Earth observation satellites from companies like Planet Labs, Umbra, and HawkEye 360; GPS; miniature CubeSats for education and research; and military/defense satellites.

Not visible in the next 10 days
Identifier
100627, 2026-204N
Orbit
LEO
Country
Flag of USUS
Related business
Manufacturer
SpaceX/Seattle
Mission
Operational spacecraft
Bus & Motor
STARLINK V2MO, Unknown motor
Mass
575 kg wet, ~530 kg dry
Launch date (UTC)
2026-09-06 (5 days ago)
Launch vehicle
Unknown
Launch site
Air Force Western Test Range (AFWTR)
Object type
Payload
Rocket body
Debris
Shape & HBR
BOX + PAN, 17.7 m
Radar Cross Section
RCS unknown

Expand to show TLE details & history
Last TLE update: 21 hours ago

TLE from 21 hours ago
0 STARLINK-36778
1 A0627U          26253.56640213 -.00977789  32188-3 -17238-2 0  9997
2 A0627  69.9971 266.2404 0005538 272.6236  87.4341 16.01770830   641
Epoch: 2026-09-10T13:35Z
TLE epoch observation values (Epoch: 2026-09-10T13:35:37.144Z)
Latitude
-0.00008°
Longitude
72.73334°
Altitude
271.886 km
Speed
7.745 km/s
True Right ascension
17h 44m 57s
True Declination
0° 00' 00"
Sunlit
Object was in daylight at epoch
Visualization orbit readout
Latitude
Unknown
Longitude
Unknown
Altitude
Unknown
Speed
Unknown
Apparent Right ascension
Unknown
Apparent Declination
Unknown
Sunlit
N/A
Visualization observer readout
Local Sidereal Time
02:29:22
Azimuth
Unknown
Elevation
Unknown
Doppler factor
Unknown
Orbital elements
Apogee altitude
271.05 km
Perigee altitude
263.689 km
Semi-major axis
6,645.507 km
Eccentricity
0.00055
Inclination
69.9971°
RAAN
266.2404°
Arg. of periapsis
272.6236°
True anomaly
87.4975°
Mean anomaly
87.4341°
Eccentric anomaly
87.4658°
Mean motion
4.00637 °/min
Orbital period
89.86 mins
BSTAR
-0.0017238
Loading maneuver chart data...
Computing Atmospheric mass density...
Loading historical data...
Loading historical data...
Loading historical data...
Loading historical data...
Loading historical data...
Loading historical data...
Loading historical data...

Documentation

Showing up to 5 results
|